Location: Calvatone
(45.1167°N, 10.4333°E)
Time: 21:51:46
(UTC+00:00)

Cosmos 1844 Rocket - Pass Details

Date: 28 January 2023
Orbit: 826 x 843 km, 71.0° (Epoch: 21 March)

Event Time Altitude Azimuth Distance (km) Brightness Sun altitude
Rises 19:24:58 0° 331° (NNW) 3,376 6.3 -32.7°
Reaches altitude 10° 19:27:25 10° 329° (NNW) 2,437 5.5 -33.1°
Enters shadow 19:30:57 39° 315° (NW) 1,219 3.7 -33.7°
